[[{"header":{"parameterUnit":"m.s-1","parameterCategory":1,"la1":30.2991,"la2":30.254,"lo1":-89.0895,"lo2":-89.0444,"dy":0.0017,"dx":0.0017,"nx":28,"ny":28,"refTime":"2023-10-13T03:00:00:Z","depth":0,"parameterNumber":2,"parameterNumberName":"U-component_of_WINDS"},"data":[0,0,0,0,0,0,0,0,0,0,0,0,0,0,0,0,0,0,0,0,0,0,0,0,0,0,0,0,0,0,0,0,0,0,0,0,0,0,0,0,0,0,0,0,0,0,0,0,0,0,0,0,0,0,0,0,0,0,-2.3335,-2.3335,0,-2.3345,-2.3345,-2.3345,-2.3284,-2.3283,-2.3281,-2.3279,-2.3291,-2.3292,-2.3294,0,0,0,0,0,0,0,0,0,0,0,0,0,-2.3266,-2.3268,-2.3335,-2.3335,-2.3335,-2.3345,-2.3345,-2.3345,-2.3285,-2.3282,-2.328,-2.3278,-2.329,-2.3292,-2.3295,0,0,0,0,0,0,0,0,0,0,0,0,0,-2.3288,-2.3268,-2.3335,-2.3306,-2.3304,-2.3345,-2.3345,-2.3345,-2.3285,-2.3282,-2.328,-2.3277,-2.3289,-2.3292,-2.3295,-2.3364,0,0,-2.3304,-2.3305,0,0,0,0,0,0,0,0,-2.3287,-2.3291,-2.3311,-2.3308,-2.3306,-2.3311,-2.3324,-2.3351,-2.3286,-2.3292,-2.3279,-2.3276,-2.3299,-2.3301,-2.3309,-2.3365,-2.3365,-2.3304,-2.3306,-2.3307,-2.3308,0,0,0,0,0,0,0,-2.3285,-2.329,-2.3339,-2.3311,-2.3308,-2.3293,-2.3294,-2.3329,-2.331,-2.3291,-2.3287,-2.3289,-2.3298,-2.3306,-2.3309,-2.3365,-2.3304,-2.3306,-2.3308,-2.3309,-2.3478,-2.3481,0,0,0,0,0,0,-2.3287,-2.3289,-2.3339,-2.3339,-2.329,-2.3297,-2.3297,-2.3312,-2.331,-2.3307,-2.3291,-2.3286,-2.3303,-2.3305,-2.3309,-2.339,-2.3307,-2.3309,-2.3311,-2.3475,-2.3479,-2.3482,0,0,0,0,0,0,-2.3286,-2.3293,-2.3338,-2.3313,-2.3318,-2.3301,-2.3318,-2.3313,-2.3322,-2.3309,-2.3306,-2.3303,-2.3301,-2.3305,-2.3351,-2.3389,-2.3311,-2.3313,-2.3472,-2.3476,-2.348,-2.3553,0,0,0,0,0,0,-2.3285,-2.3292,-2.3318,-2.3314,-2.3319,-2.338,-2.332,-2.3315,-2.3327,-2.332,-2.332,-2.3317,-2.3299,-2.3347,-2.3353,-2.3392,-2.3316,-2.3469,-2.3474,-2.3479,-2.3547,-2.3559,-2.3569,0,0,0,0,0,-2.3282,-2.3339,-2.332,-2.3326,-2.3351,-2.3382,-2.3385,-2.3362,-2.333,-2.3356,-2.3348,-2.3317,-2.3384,-2.3352,-2.3359,-2.3399,-2.3466,-2.3473,-2.3479,-2.3542,-2.3557,-2.3569,0,0,0,0,0,0,-2.3349,-2.3338,-2.3317,-2.3374,-2.3379,-2.3372,-2.3404,-2.3379,-2.3394,-2.3388,-2.3359,-2.3359,-2.341,-2.3409,-2.3374,-2.3466,-2.3419,-2.3427,-2.3465,-2.3479,-2.349,-2.349,-2.3318,0,0,0,0,0,-2.337,-2.3396,-2.3385,-2.3436,-2.344,-2.3422,-2.3434,-2.3416,-2.3421,-2.3424,-2.3419,-2.3425,-2.3447,-2.3463,-2.3483,-2.3546,-2.3545,-2.3577,-2.3588,-2.3597,-2.3605,-2.3638,-2.3652,-2.3502,-2.3502,-2.3502,0,0,-2.3415,-2.3412,-2.343,-2.3449,-2.3452,-2.3479,-2.3424,-2.3456,-2.3476,-2.3428,-2.3471,-2.3468,-2.3473,-2.3528,-2.3552,-2.3529,-2.3646,-2.3605,-2.3613,-2.3615,-2.3646,-2.366,-2.3673,-2.3507,-2.3506,-2.3505,0,0,-2.351,-2.351,-2.3553,-2.3556,-2.356,-2.3547,-2.3557,-2.3554,-2.355,-2.3592,-2.3557,-2.3581,-2.3619,-2.3625,-2.3633,-2.3729,-2.3701,-2.3736,-2.3795,-2.3828,-2.384,-2.385,-2.3885,-2.3898,-2.3743,-2.3744,-2.3744,0,-2.3565,-2.3605,-2.3578,-2.3612,-2.3622,-2.3579,-2.3622,-2.3626,-2.3637,-2.3645,-2.3618,-2.3666,-2.3666,-2.3722,-2.3745,-2.3753,-2.3764,-2.3737,-2.384,-2.385,-2.3859,-2.3892,-2.3906,-2.3748,-2.3747,-2.3747,-2.3746,0,-2.3673,-2.3701,-2.3735,-2.3745,-2.3759,-2.3797,-2.3777,-2.3793,-2.3774,-2.3764,-2.3808,-2.3807,-2.3825,-2.3837,-2.3818,-2.389,-2.3875,-2.3845,-2.3798,-2.3878,-2.3909,-2.3921,-2.3754,-2.3752,-2.3751,-2.375,0,0,-2.3812,-2.3806,-2.3819,-2.3823,-2.3824,-2.3845,-2.3882,-2.3899,-2.3915,-2.3923,-2.3953,-2.3987,-2.3958,-2.3967,-2.3948,-2.3977,-2.4054,-2.3943,-2.3943,-2.3964,-2.4133,-2.4157,-2.4172,-2.4035,-2.4037,-2.4039,-2.4133,0,-2.3905,-2.3967,-2.3943,-2.4007,-2.4033,-2.3992,-2.4023,-2.4027,-2.4019,-2.404,-2.4031,-2.4055,-2.4015,-2.4021,-2.4047,-2.4039,-2.4088,-2.4032,-2.4064,-2.4065,-2.4065,-2.4188,-2.4213,-2.4302,-2.4145,-2.4147,-2.4148,0,-2.4023,-2.4035,-2.4102,-2.4097,-2.4107,-2.4136,-2.415,-2.4171,-2.4174,-2.4166,-2.4176,-2.4151,-2.4186,-2.4139,-2.4188,-2.415,-2.4161,-2.4159,-2.4162,-2.4165,-2.4113,-2.4196,-2.433,-2.4344,-2.4167,-2.4165,-2.4164,0,-2.4118,-2.4152,-2.4196,-2.42,-2.4196,-2.4218,-2.4217,-2.4218,-2.423,-2.4242,-2.425,-2.4267,-2.4276,-2.429,-2.427,-2.4237,-2.4322,-2.4272,-2.4317,-2.4318,-2.4338,-2.4337,-2.4477,-2.4344,-2.4344,-2.4343,-2.4343,0,-2.4226,-2.4268,-2.4238,-2.4266,-2.4312,-2.4284,-2.4331,-2.4325,-2.4327,-2.4352,-2.4317,-2.4342,-2.4314,-2.4336,-2.4321,-2.4364,-2.4369,-2.4364,-2.4359,-2.4367,-2.4368,-2.4375,-2.4369,-2.4347,-2.4346,-2.4345,-2.4345,0,-2.4341,-2.4323,-2.4368,-2.436,-2.4359,-2.4394,-2.4387,-2.4412,-2.4401,-2.4434,-2.444,-2.4422,-2.4447,-2.4428,-2.4452,-2.4441,-2.4499,-2.4485,-2.4498,-2.4494,-2.454,-2.4537,-2.4691,-2.471,-2.4564,-2.4565,-2.4566,0,-2.4412,-2.4443,-2.4438,-2.4453,-2.4454,-2.4478,-2.449,-2.4463,-2.4477,-2.4483,-2.4508,-2.4529,-2.4545,-2.4586,-2.4576,-2.4594,-2.4581,-2.4634,-2.4584,-2.4591,-2.4583,-2.4582,-2.4585,-2.4644,-2.4646,-2.4647,-2.4649,0,-2.4539,-2.4528,-2.4546,-2.4561,-2.4576,-2.4587,-2.4595,-2.4609,-2.4582,-2.4599,-2.4623,-2.4636,-2.466,-2.4682,-2.4696,-2.4696,-2.4668,-2.4664,-2.4676,-2.4685,-2.4691,-2.4689,-2.4527,-2.4661,-2.466,-2.4659,-2.4658,-2.4658,-2.4634,-2.466,-2.4661,-2.4682,-2.4685,-2.4694,-2.4717,-2.4708,-2.4727,-2.4745,-2.4728,-2.4757,-2.4759,-2.4776,-2.4779,-2.4802,-2.478,-2.4797,-2.4801,-2.4806,-2.4813,-2.4686,-2.4804,-2.4804,-2.4803,-2.4803,-2.4803,0,-2.476,-2.4758,-2.4778,-2.479,-2.4807,-2.4778,-2.4786,-2.4802,-2.4828,-2.4832,-2.4848,-2.4876,-2.4897,-2.4888,-2.4906,-2.4926,-2.4914,-2.4932,-2.4931,-2.4931,-2.483,-2.4819,-2.4941,-2.4941,-2.4941,-2.4941,-2.4941,-2.4941,-2.4828,-2.487,-2.486,-2.4903,-2.4901,-2.4929,-2.4936,-2.4943,-2.4947,-2.4979,-2.4996,-2.4989,-2.4989,-2.5006,-2.5024,-2.5021,-2.503,-2.5052,-2.5045,-2.4952,-2.4938,-2.4925,-2.4914,-2.5054,-2.5055,-2.5144,-2.5144,-2.5145]},{"header":{"parameterUnit":"m.s-1","parameterCategory":1,"la1":30.2991,"la2":30.254,"lo1":-89.0895,"lo2":-89.0444,"dy":0.0017,"dx":0.0017,"nx":28,"ny":28,"refTime":"2023-10-13T03:00:00:Z","depth":0,"parameterNumber":3,"parameterNumberName":"V-component_of_WINDS"},"data":[0,0,0,0,0,0,0,0,0,0,0,0,0,0,0,0,0,0,0,0,0,0,0,0,0,0,0,0,0,0,0,0,0,0,0,0,0,0,0,0,0,0,0,0,0,0,0,0,0,0,0,0,0,0,0,0,0,0,-2.0441,-2.0441,0,-2.0454,-2.0454,-2.0454,-2.0424,-2.0423,-2.0422,-2.0421,-2.0433,-2.0434,-2.0435,0,0,0,0,0,0,0,0,0,0,0,0,0,-2.0389,-2.039,-2.0441,-2.0441,-2.0442,-2.0454,-2.0454,-2.0454,-2.0424,-2.0423,-2.0422,-2.0421,-2.0433,-2.0434,-2.0435,0,0,0,0,0,0,0,0,0,0,0,0,0,-2.0408,-2.0391,-2.0441,-2.0428,-2.0427,-2.0454,-2.0454,-2.0454,-2.0425,-2.0423,-2.0422,-2.042,-2.0432,-2.0434,-2.0436,-2.0475,0,0,-2.0441,-2.0442,0,0,0,0,0,0,0,0,-2.0407,-2.041,-2.043,-2.0429,-2.0428,-2.0436,-2.044,-2.0461,-2.0425,-2.0425,-2.0421,-2.042,-2.0435,-2.0437,-2.0442,-2.0476,-2.0476,-2.0441,-2.0442,-2.0443,-2.0444,0,0,0,0,0,0,0,-2.0405,-2.0409,-2.0446,-2.043,-2.0429,-2.0421,-2.0422,-2.0444,-2.0438,-2.0425,-2.0423,-2.0425,-2.0434,-2.044,-2.0442,-2.0477,-2.0441,-2.0443,-2.0444,-2.0445,-2.0544,-2.0545,0,0,0,0,0,0,-2.0406,-2.0408,-2.0446,-2.0447,-2.0414,-2.0423,-2.0424,-2.0435,-2.0438,-2.0437,-2.0426,-2.0424,-2.0438,-2.044,-2.0442,-2.0489,-2.0443,-2.0445,-2.0446,-2.0542,-2.0544,-2.0546,0,0,0,0,0,0,-2.0405,-2.041,-2.0445,-2.0427,-2.0431,-2.0426,-2.0438,-2.0436,-2.0442,-2.0439,-2.0437,-2.0434,-2.0437,-2.044,-2.0468,-2.0489,-2.0446,-2.0447,-2.0541,-2.0543,-2.0545,-2.0584,0,0,0,0,0,0,-2.0404,-2.041,-2.0425,-2.0427,-2.0432,-2.0471,-2.0439,-2.0437,-2.0445,-2.0442,-2.0445,-2.0444,-2.0436,-2.0465,-2.0469,-2.0491,-2.0449,-2.0539,-2.0542,-2.0544,-2.058,-2.0587,-2.0593,0,0,0,0,0,-2.0402,-2.0435,-2.0426,-2.0431,-2.0451,-2.0472,-2.0475,-2.0465,-2.0447,-2.0463,-2.046,-2.0444,-2.0486,-2.0468,-2.0473,-2.0495,-2.0537,-2.0541,-2.0544,-2.0578,-2.0586,-2.0593,0,0,0,0,0,0,-2.0435,-2.0435,-2.0425,-2.046,-2.0466,-2.0467,-2.0486,-2.0474,-2.0485,-2.0481,-2.0468,-2.0469,-2.0499,-2.05,-2.048,-2.0534,-2.0509,-2.0513,-2.0533,-2.054,-2.0546,-2.0546,-2.045,0,0,0,0,0,-2.0446,-2.0464,-2.0463,-2.0494,-2.0497,-2.0491,-2.05,-2.0492,-2.0498,-2.05,-2.05,-2.0506,-2.052,-2.053,-2.0543,-2.058,-2.0581,-2.0598,-2.0604,-2.0609,-2.0613,-2.0633,-2.0641,-2.0557,-2.0557,-2.0557,0,0,-2.0469,-2.0472,-2.0484,-2.05,-2.0504,-2.0522,-2.0494,-2.0514,-2.0527,-2.0503,-2.053,-2.053,-2.0535,-2.0568,-2.0582,-2.0569,-2.0636,-2.0614,-2.0618,-2.0619,-2.0638,-2.0645,-2.0653,-2.056,-2.0559,-2.0559,0,0,-2.0522,-2.0525,-2.0552,-2.0556,-2.0563,-2.0559,-2.0565,-2.0568,-2.0567,-2.0594,-2.0576,-2.0591,-2.0616,-2.0621,-2.0627,-2.0681,-2.0667,-2.0686,-2.0718,-2.0737,-2.0744,-2.075,-2.0769,-2.0776,-2.069,-2.069,-2.069,0,-2.055,-2.0577,-2.0566,-2.0588,-2.0596,-2.0576,-2.0602,-2.0607,-2.0617,-2.0623,-2.0608,-2.064,-2.0642,-2.0676,-2.0689,-2.0694,-2.0701,-2.0685,-2.0744,-2.075,-2.0755,-2.0773,-2.0781,-2.0692,-2.0692,-2.0692,-2.0692,0,-2.0612,-2.0631,-2.0651,-2.0663,-2.0672,-2.0696,-2.0689,-2.07,-2.0691,-2.0688,-2.0715,-2.0717,-2.0731,-2.0738,-2.0729,-2.077,-2.0762,-2.0746,-2.072,-2.0765,-2.0782,-2.0789,-2.0695,-2.0695,-2.0694,-2.0693,0,0,-2.0685,-2.069,-2.0698,-2.0703,-2.0709,-2.0723,-2.0746,-2.076,-2.077,-2.0777,-2.0796,-2.0818,-2.0803,-2.081,-2.0801,-2.0818,-2.0862,-2.08,-2.08,-2.0812,-2.0907,-2.092,-2.0928,-2.0852,-2.0853,-2.0854,-2.0907,0,-2.0737,-2.0777,-2.0768,-2.0807,-2.0825,-2.0806,-2.0825,-2.0831,-2.0829,-2.0843,-2.084,-2.0856,-2.0835,-2.0839,-2.0855,-2.0853,-2.0881,-2.0849,-2.0869,-2.087,-2.0869,-2.0937,-2.095,-2.1,-2.0914,-2.0915,-2.0916,0,-2.0803,-2.0814,-2.0855,-2.0859,-2.0866,-2.0884,-2.0896,-2.091,-2.0915,-2.0913,-2.092,-2.0908,-2.093,-2.0904,-2.0935,-2.0913,-2.0921,-2.0921,-2.0923,-2.0925,-2.0896,-2.0941,-2.1016,-2.1023,-2.0926,-2.0925,-2.0924,0,-2.0853,-2.0878,-2.0906,-2.0911,-2.0915,-2.0929,-2.0931,-2.0935,-2.0944,-2.0954,-2.096,-2.0972,-2.0979,-2.0989,-2.098,-2.0962,-2.1012,-2.0985,-2.101,-2.1011,-2.1022,-2.1021,-2.1099,-2.1026,-2.1026,-2.1026,-2.1026,0,-2.0912,-2.0938,-2.0929,-2.0946,-2.0974,-2.0964,-2.0992,-2.0992,-2.0996,-2.1013,-2.0996,-2.1012,-2.1,-2.1015,-2.1008,-2.1035,-2.1038,-2.1036,-2.1034,-2.1038,-2.1038,-2.1043,-2.1039,-2.1028,-2.1028,-2.1027,-2.1027,0,-2.0973,-2.0967,-2.0997,-2.0999,-2.1,-2.1021,-2.1022,-2.1038,-2.1035,-2.1056,-2.106,-2.1055,-2.1072,-2.1064,-2.1081,-2.1077,-2.1111,-2.1104,-2.1109,-2.1108,-2.1133,-2.1131,-2.1217,-2.1228,-2.1148,-2.1149,-2.1149,0,-2.1011,-2.1031,-2.1035,-2.1045,-2.1049,-2.1066,-2.1075,-2.1065,-2.1075,-2.1083,-2.1098,-2.1113,-2.1125,-2.1152,-2.1149,-2.1162,-2.1156,-2.1185,-2.1158,-2.1161,-2.1157,-2.1156,-2.1158,-2.1191,-2.1192,-2.1192,-2.1193,0,-2.108,-2.1076,-2.109,-2.1104,-2.1115,-2.1125,-2.1133,-2.1143,-2.1133,-2.1145,-2.1162,-2.1171,-2.1189,-2.1204,-2.1215,-2.1217,-2.1204,-2.1202,-2.1208,-2.1212,-2.1215,-2.1214,-2.1125,-2.12,-2.1199,-2.1199,-2.1198,-2.1198,-2.113,-2.1147,-2.1153,-2.117,-2.1175,-2.1183,-2.1198,-2.1197,-2.1211,-2.1225,-2.1218,-2.1238,-2.1243,-2.1257,-2.1261,-2.1276,-2.1264,-2.1274,-2.1276,-2.1279,-2.1282,-2.1212,-2.1278,-2.1278,-2.1277,-2.1277,-2.1277,0,-2.1199,-2.1202,-2.1217,-2.1229,-2.1242,-2.1229,-2.1237,-2.1249,-2.1267,-2.1273,-2.1285,-2.1304,-2.1319,-2.1318,-2.1331,-2.1343,-2.1337,-2.1347,-2.1346,-2.1347,-2.1292,-2.1285,-2.1352,-2.1352,-2.1352,-2.1352,-2.1352,-2.1352,-2.1236,-2.1264,-2.1261,-2.1291,-2.1293,-2.1313,-2.1319,-2.1327,-2.1332,-2.1355,-2.1367,-2.1366,-2.1369,-2.1383,-2.1396,-2.1395,-2.1401,-2.1413,-2.141,-2.1358,-2.1351,-2.1344,-2.1337,-2.1414,-2.1414,-2.1464,-2.1464,-2.1464]}]]